Regional Weather Roundup
Issued by NWS Cleveland, OH

Home | Current Version | Previous Version | Text Only | Print | Product List | Glossary Off
Versions: 1 2 3 4 5 6 7 8 9 10 11 12 13 14 15 16 17 18 19 20 21 22 23 24 25 26 27 28 29 30 31 32 33 34 35 36 37 38 39 40 41 42 43 44 45 46 47 48 49 50

000
ASUS41 KCLE 130612
RWRCLE
OHIO REGIONAL WEATHER ROUNDUP
NATIONAL WEATHER SERVICE WILMINGTON, OH
100 AM EST SAT FEB 13 2016

NOTE: "FAIR" INDICATES FEW OR NO CLOUDS BELOW 12,000 FEET WITH NO
SIGNIFICANT WEATHER AND/OR OBSTRUCTIONS TO VISIBILITY.

OHZ001>008-015>018-024>027-034-035-043-044-130700-
   NORTHWEST OHIO

CITY           SKY/WX    TMP DP  RH WIND       PRES   REMARKS
DEFIANCE       MOCLDY    12  -2  53 N12       30.31R WCI  -2
FINDLAY        CLOUDY    12   5  73 N15       30.26R WCI  -4
TOLEDO EXPRESS FAIR       8  -5  55 NW15      30.29R WCI  -9
TOLEDO EXEC    FAIR      10  -3  55 NW17G25   30.29R WCI  -8
LIMA           FAIR      12   7  80 NW13      30.25R WCI  -3
$$

OHZ009>014-019>023-028>033-038-089-130700-
   NORTHEAST OHIO

CITY           SKY/WX    TMP DP  RH WIND       PRES   REMARKS
CLE-HOPKINS    LGT SNOW  13   1  59 NW23G29   30.20R WCI  -6
CLE-LAKEFRONT  CLOUDY    16   7  67 NW25G36   30.17R WCI  -3
CUY CO. ARPT   NOT AVBL
LORAIN-ELYRIA  FLURRIES  11  -1  58 NW22G31   30.21R WCI  -8
ASHTABULA      CLOUDY    12   1  61 NW14G37   30.10R HAZE    WCI  -3
AKRON-CANTON   LGT SNOW  11   4  73 N17G25    30.12R WCI  -6
WOOSTER        LGT SNOW  12   8  84 NW21G28   30.16R VSB 1   WCI  -7
MANSFIELD      LGT SNOW  11   7  84 NW18G25   30.16R FOG     WCI  -7
YOUNGSTOWN     LGT SNOW  13   7  77 NW22G31   30.06R WCI  -6
$$

OHZ042-051>053-060>062-070>072-077>081-130700-
  SOUTHWEST OHIO

CITY           SKY/WX    TMP DP  RH WIND       PRES   REMARKS
CINC-COVINGTON FAIR      19   6  57 NW16      30.31R WCI   4
CINC-LUNKEN    MOCLDY    19   8  62 VRB7G21   30.35R WCI  10
HAMILTON       FAIR      18   5  57 NW9       30.34R WCI   7
DAYTON         FAIR      13   6  74 NW14      30.28R WCI  -2
WRIGHT-PAT AFB CLEAR     15   4  60 NW15G24   30.28R WCI   0
DAYTON GENERAL FAIR      15   4  61 NW13G21   30.28R WCI   1
WILMINGTON     FAIR      14   6  70 NW16      30.26R WCI  -2
$$

OHZ036-037-039>041-045>050-054>059-063>069-073>076-082>088-130700-
  CENTRAL AND SOUTHEAST OHIO

CITY           SKY/WX    TMP DP  RH WIND       PRES   REMARKS
COLUMBUS       FAIR      14   3  61 NW14      30.24R WCI  -1
OSU AIRPORT    FAIR      13   5  70 NW12      30.23R WCI  -1
BOLTON FIELD   MOCLDY    14   6  71 NW10G20   30.25R WCI   1
RICKENBACK AFB FAIR      15   6  68 NW15G21   30.25R WCI  -1
NEWARK         MOCLDY    15   5  64 NW13      30.21R WCI   1
MARION         CLOUDY    13   4  67 NW16G23   30.22R WCI  -3
LANCASTER      FAIR      15   7  70 NW12G18   30.24R WCI   2
ZANESVILLE     MOCLDY    17   5  59 NW16G22   30.19R WCI   2
NEW PHILLY     FAIR      15   4  61 NW9G21    30.15R WCI   3
$$



USA.gov is the U.S. government's official web portal to all federal, state and local government web resources and services.